GW0306 Weather Reports


Display with metric or nautical units.
time (UTC)temp
F
wind
direction
speed
MPH
gust
MPH
rain 1hr
in
rain 24hr
in
rain mn
in
humidity
%
barometer
mb
20260508145711 51 270 11.0 20.0 0.00 0.00 0.01 66 1005.1
20260508145202 51 293 10.0 20.0 0.00 0.00 0.01 66 1005.2
20260508144651 52 293 9.0 22.0 0.00 0.00 0.01 65 1005.5
20260508142101 51 270 13.0 24.0 0.00 0.00 0.01 67 1005.2
20260508141040 51 248 15.0 22.0 0.00 0.00 0.01 67 1005.5
20260508140530 51 293 8.0 21.0 0.00 0.00 0.01 69 1005.4
20260508135510 50 270 7.0 17.0 0.00 0.00 0.01 70 1005.4
20260508135000 49 293 10.0 17.0 0.00 0.00 0.01 71 1005.5
20260508134449 49 315 8.0 23.0 0.00 0.00 0.01 71 1005.3
20260508133940 49 293 11.0 23.0 0.00 0.00 0.01 72 1005.2
20260508133430 50 293 5.0 25.0 0.00 0.00 0.01 72 1005.1
20260508132919 50 315 9.0 25.0 0.00 0.00 0.01 71 1005.3
20260508132409 50 293 8.0 25.0 0.00 0.00 0.01 72 1005.2
20260508131859 49 293 6.0 20.0 0.00 0.00 0.01 73 1005.3
20260508131349 49 293 9.0 16.0 0.00 0.00 0.01 74 1005.2
20260508130839 49 270 6.0 18.0 0.00 0.00 0.01 74 1005.4
20260508125819 48 293 10.0 24.0 0.00 0.00 0.01 74 1005.1
20260508125308 48 315 9.0 23.0 0.00 0.00 0.01 75 1005.2
20260508124759 48 203 9.0 17.0 0.00 0.00 0.01 75 1005.2
20260508124249 48 270 7.0 21.0 0.00 0.00 0.01 76 1004.9
20260508123738 48 315 8.0 21.0 0.00 0.00 0.01 76 1005.0
20260508123228 47 270 11.0 18.0 0.00 0.00 0.01 76 1005.0
20260508122208 47 270 6.0 16.0 0.00 0.00 0.01 77 1004.9
20260508121148 47 315 7.0 18.0 0.00 0.00 0.01 77 1004.6
20260508120638 47 248 10.0 18.0 0.00 0.00 0.01 77 1004.8
20260508120128 46 270 5.0 15.0 0.00 0.00 0.01 78 1004.6
20260508115617 46 270 6.0 17.0 0.00 0.00 0.01 78 1004.6
20260508115107 46 270 5.0 17.0 0.00 0.00 0.01 79 1004.7
20260508114558 46 270 11.0 17.0 0.00 0.00 0.01 79 1004.6
20260508114046 46 270 5.0 16.0 0.00 0.00 0.01 79 1004.5
20260508113537 46 270 6.0 22.0 0.00 0.00 0.01 79 1004.4
20260508113027 46 270 13.0 22.0 0.00 0.00 0.01 79 1004.4
20260508112517 45 293 8.0 20.0 0.00 0.00 0.01 80 1004.2
20260508112007 45 293 10.0 20.0 0.00 0.00 0.01 81 1004.4
20260508111456 45 293 11.0 18.0 0.00 0.00 0.01 81 1004.2
20260508110946 45 293 11.0 20.0 0.00 0.00 0.01 83 1004.1
20260508110436 45 270 8.0 20.0 0.00 0.00 0.01 84 1003.9
20260508105926 45 315 11.0 20.0 0.00 0.00 0.01 85 1004.1
20260508105416 45 293 8.0 17.0 0.00 0.00 0.01 86 1003.8
20260508104906 45 293 9.0 18.0 0.00 0.00 0.01 87 1004.1
20260508104356 45 270 11.0 18.0 0.00 0.00 0.01 88 1003.9
20260508103846 45 270 9.0 17.0 0.00 0.00 0.01 88 1003.7
20260508103335 45 293 8.0 20.0 0.00 0.00 0.01 88 1003.6
20260508102825 45 270 7.0 20.0 0.00 0.00 0.01 89 1003.7
20260508102315 45 293 12.0 20.0 0.00 0.00 0.01 89 1003.7
20260508101805 44 225 5.0 22.0 0.00 0.00 0.01 90 1003.7
20260508101255 45 270 9.0 22.0 0.00 0.00 0.01 90 1003.6
20260508100745 45 293 6.0 17.0 0.00 0.00 0.01 89 1003.3
20260508100235 45 293 7.0 17.0 0.00 0.00 0.01 88 1003.3
20260508095725 45 248 4.0 16.0 0.00 0.00 0.01 87 1003.4
20260508095215 45 270 4.0 20.0 0.00 0.00 0.01 87 1003.2
20260508094705 45 293 7.0 20.0 0.00 0.00 0.01 88 1003.0
20260508094154 45 248 6.0 18.0 0.00 0.00 0.01 89 1003.0
20260508093644 45 270 7.0 18.0 0.00 0.00 0.01 88 1003.1
20260508093134 46 315 5.0 16.0 0.00 0.00 0.01 87 1003.1
20260508092624 46 248 5.0 20.0 0.00 0.00 0.01 86 1003.1
20260508092114 46 203 7.0 21.0 0.00 0.00 0.01 85 1003.2
20260508091604 46 225 7.0 22.0 0.00 0.00 0.01 84 1002.9
20260508090544 47 248 9.0 24.0 0.00 0.00 0.01 81 1003.2
20260508090033 47 248 12.0 27.0 0.00 0.00 0.01 80 1002.8
20260508085523 48 248 8.0 27.0 0.00 0.00 0.01 80 1002.8
20260508083953 49 270 7.0 25.0 0.00 0.00 0.01 78 1002.7
20260508083443 49 293 9.0 15.0 0.00 0.00 0.01 77 1002.5
20260508082932 49 293 7.0 21.0 0.00 0.00 0.01 76 1002.7
20260508082422 49 203 6.0 21.0 0.00 0.00 0.01 76 1002.7
20260508081403 49 248 6.0 16.0 0.00 0.00 0.01 78 1002.7
20260508080852 49 270 8.0 13.0 0.00 0.00 0.01 77 1002.5
20260508080341 49 270 5.0 0.0 0.00 0.00 0.01 76 1002.4
20260508080147 49 270 5.0 0.0 0.00 0.00 0.01 75 1002.4
20260508075524 49 270 10.0 17.0 0.00 0.06 0.01 75 1002.4
20260508075014 49 270 4.0 11.0 0.00 0.06 0.01 76 1002.4
20260508073953 49 225 5.0 18.0 0.00 0.06 0.01 75 1002.6
20260508073444 49 248 4.0 18.0 0.00 0.06 0.01 75 1002.6
20260508072423 49 248 9.0 18.0 0.00 0.06 0.01 76 1002.6
20260508071913 49 248 6.0 18.0 0.00 0.06 0.01 76 1002.6
20260508071403 49 293 6.0 20.0 0.00 0.06 0.01 77 1002.9
20260508070852 49 270 7.0 20.0 0.00 0.06 0.01 77 1002.8
20260508065832 49 270 11.0 21.0 0.00 0.06 0.01 77 1002.8
20260508065323 48 248 8.0 17.0 0.00 0.06 0.01 77 1002.8
20260508064812 48 315 6.0 18.0 0.00 0.06 0.01 78 1002.8
20260508064303 48 270 11.0 18.0 0.00 0.06 0.01 79 1003.0
20260508063752 48 293 11.0 17.0 0.00 0.06 0.01 78 1003.0
20260508063242 48 270 7.0 18.0 0.00 0.06 0.01 78 1003.1
20260508062732 48 158 7.0 18.0 0.00 0.06 0.01 78 1003.1
20260508062222 48 248 8.0 27.0 0.00 0.06 0.01 78 1003.2
20260508061712 48 293 8.0 27.0 0.00 0.06 0.01 78 1003.2
20260508061201 49 248 10.0 27.0 0.00 0.06 0.01 78 1003.2
20260508060651 49 270 11.0 27.0 0.00 0.06 0.01 78 1003.4
20260508060142 49 225 11.0 25.0 0.00 0.06 0.01 79 1003.3
20260508055631 49 225 7.0 25.0 0.00 0.06 0.01 80 1003.1
20260508055121 49 270 9.0 20.0 0.00 0.06 0.01 81 1003.4
20260508054101 49 248 8.0 21.0 0.00 0.06 0.01 80 1003.4
20260508053551 49 180 10.0 23.0 0.00 0.06 0.01 80 1003.4
20260508053046 49 270 7.0 23.0 0.00 0.06 0.01 80 1003.4
20260508052531 49 225 4.0 13.0 0.00 0.06 0.01 81 1003.2
20260508052020 49 293 4.0 17.0 0.00 0.06 0.01 81 1003.2
20260508051001 49 270 7.0 22.0 0.00 0.06 0.01 81 1003.4
20260508050450 49 203 6.0 22.0 0.00 0.06 0.01 82 1003.3
20260508045940 49 248 7.0 21.0 0.00 0.06 0.01 83 1003.1
20260508045429 49 203 6.0 18.0 0.00 0.06 0.01 84 1003.0
20260508044409 48 270 3.0 17.0 0.01 0.06 0.01 86 1003.1
20260508043349 48 248 4.0 20.0 0.01 0.06 0.01 88 1002.9
20260508042840 48 270 3.0 20.0 0.01 0.06 0.01 88 1003.0
20260508042330 47 270 8.0 20.0 0.01 0.06 0.01 89 1003.2
20260508041819 47 203 9.0 20.0 0.01 0.06 0.01 90 1003.0
20260508041312 47 248 11.0 20.0 0.01 0.06 0.01 91 1002.7
20260508040759 47 248 7.0 17.0 0.01 0.06 0.01 92 1003.1
20260508040249 47 293 6.0 17.0 0.01 0.06 0.01 92 1002.9
20260508035229 47 248 11.0 20.0 0.01 0.06 0.01 93 1003.1
20260508034718 47 270 8.0 15.0 0.00 0.05 0.00 93 1003.3
20260508033658 47 293 4.0 18.0 0.00 0.05 0.00 93 1003.0
20260508033148 47 225 11.0 22.0 0.00 0.05 0.00 93 1003.0
20260508032128 47 270 6.0 21.0 0.00 0.05 0.00 93 1003.0
20260508031618 48 203 7.0 21.0 0.00 0.05 0.00 93 1002.9
20260508031107 48 315 8.0 20.0 0.00 0.05 0.00 93 1002.8
20260508030557 48 248 10.0 21.0 0.00 0.05 0.00 92 1002.9
20260508030047 48 225 6.0 21.0 0.00 0.05 0.00 92 1002.9
20260508025537 49 225 6.0 21.0 0.00 0.05 1.52 92 1002.7
20260508025028 49 270 8.0 22.0 0.00 0.05 1.52 92 1002.8
20260508024517 49 293 8.0 23.0 0.00 0.05 1.52 92 1002.8
20260508023458 49 225 10.0 21.0 0.00 0.05 1.52 93 1002.5
20260508022947 49 248 9.0 21.0 0.00 0.05 1.52 93 1002.4
20260508022436 49 248 7.0 20.0 0.00 0.05 1.52 93 1002.7
20260508021416 49 293 8.0 23.0 0.00 0.05 1.52 93 1002.5
20260508020906 49 270 9.0 21.0 0.00 0.05 1.52 94 1002.5
20260508020356 49 225 4.0 21.0 0.00 0.05 1.52 94 1002.5
20260508015846 49 270 12.0 21.0 0.00 0.05 1.52 94 1002.6
20260508015335 49 248 8.0 22.0 0.01 0.05 1.52 94 1002.4
20260508014826 49 248 8.0 22.0 0.01 0.05 1.52 94 1002.5
20260508014316 49 248 12.0 20.0 0.02 0.05 1.52 94 1002.6
20260508013805 50 270 6.0 16.0 0.02 0.05 1.52 94 1002.6
20260508013256 50 203 8.0 16.0 0.04 0.05 1.52 93 1002.6
20260508012745 50 315 5.0 15.0 0.05 0.05 1.52 93 1002.6
20260508012235 50 315 8.0 15.0 0.05 0.05 1.52 93 1002.6
20260508011725 50 293 8.0 20.0 0.05 0.05 1.52 93 1002.6
20260508011214 50 248 11.0 20.0 0.05 0.05 1.52 93 1002.6
20260508010705 50 338 8.0 20.0 0.05 0.05 1.52 93 1002.6
20260508010155 51 248 10.0 20.0 0.05 0.05 1.52 93 1002.7
20260508005644 51 338 11.0 20.0 0.04 0.04 1.51 93 1002.5
20260508004625 51 225 3.0 17.0 0.04 0.04 1.51 92 1003.0
20260508003604 51 270 8.0 20.0 0.01 0.01 1.49 92 1002.9
20260508003054 51 293 6.0 21.0 0.01 0.01 1.49 91 1002.8
20260508002543 51 270 6.0 21.0 0.00 0.00 1.48 91 1003.1
20260508001527 52 293 5.0 20.0 0.00 0.00 1.48 90 1002.9
20260507235953 53 270 4.0 23.0 0.00 0.00 1.48 87 1002.7
20260507235444 53 293 10.0 23.0 0.00 0.00 1.48 87 1002.6
20260507234933 53 293 8.0 21.0 0.00 0.00 1.48 86 1002.7
20260507234423 53 248 7.0 21.0 0.00 0.00 1.48 86 1002.8
20260507233913 53 270 5.0 20.0 0.00 0.00 1.48 86 1002.8
20260507233403 53 293 11.0 18.0 0.00 0.00 1.48 86 1002.8
20260507232853 53 315 8.0 16.0 0.00 0.00 1.48 86 1002.9
20260507232343 53 293 6.0 16.0 0.00 0.00 1.48 86 1002.8
20260507231832 53 315 4.0 15.0 0.00 0.00 1.48 86 1003.0
20260507230813 53 248 4.0 17.0 0.00 0.00 1.48 86 1003.1
20260507225753 54 248 8.0 15.0 0.00 0.00 1.48 85 1003.0
20260507225243 54 293 5.0 15.0 0.00 0.00 1.48 85 1003.0
20260507223712 54 315 4.0 20.0 0.00 0.00 1.48 86 1003.0
20260507222652 54 293 4.0 17.0 0.00 0.00 1.48 87 1003.2
20260507222141 53 315 7.0 17.0 0.00 0.00 1.48 88 1002.8
20260507221121 54 270 5.0 22.0 0.00 0.00 1.48 89 1002.7
20260507220611 54 270 8.0 14.0 0.00 0.00 1.48 88 1002.7
20260507220101 54 338 8.0 23.0 0.00 0.00 1.48 88 1002.4
20260507215041 54 270 8.0 23.0 0.00 0.00 1.48 87 1002.4
20260507214530 54 270 11.0 23.0 0.00 0.00 1.48 87 1002.3
20260507214020 55 270 10.0 16.0 0.00 0.00 1.48 86 1002.1
20260507213510 55 293 4.0 16.0 0.00 0.00 1.48 85 1002.2
20260507213000 55 315 9.0 16.0 0.00 0.00 1.48 85 1002.2
20260507212450 55 293 7.0 16.0 0.00 0.00 1.48 85 1002.2
20260507211940 55 270 10.0 16.0 0.00 0.00 1.48 85 1002.4
20260507211430 55 293 8.0 15.0 0.00 0.00 1.48 84 1002.4
20260507210919 55 248 5.0 13.0 0.00 0.00 1.48 84 1002.3
20260507210410 55 270 8.0 16.0 0.00 0.00 1.48 84 1002.3
20260507205900 55 338 7.0 20.0 0.00 0.00 1.48 84 1002.2
20260507204839 56 23 9.0 20.0 0.00 0.00 1.48 83 1001.9
20260507203819 56 270 6.0 15.0 0.00 0.00 1.48 82 1002.0
20260507203309 56 248 8.0 15.0 0.00 0.00 1.48 82 1001.6
20260507202249 56 293 7.0 16.0 0.00 0.00 1.48 80 1001.8
20260507201228 56 293 7.0 20.0 0.00 0.00 1.48 79 1001.5
20260507200718 57 315 9.0 20.0 0.00 0.00 1.48 78 1001.7
20260507195658 57 315 3.0 14.0 0.00 0.00 1.48 78 1001.2
20260507195147 57 293 8.0 14.0 0.00 0.00 1.48 77 1000.9
20260507194638 57 225 8.0 15.0 0.00 0.00 1.48 77 1000.8
20260507194128 57 248 8.0 15.0 0.00 0.00 1.48 77 1000.5
20260507192047 57 293 7.0 15.0 0.00 0.00 1.48 75 1000.9
20260507191028 58 270 7.0 20.0 0.00 0.00 1.48 75 1000.9
20260507190007 59 270 10.0 17.0 0.00 0.00 1.48 73 1001.4
20260507184437 58 270 8.0 20.0 0.00 0.00 1.48 74 1002.3
20260507183926 58 270 9.0 20.0 0.00 0.00 1.48 74 1002.4
20260507183416 58 293 9.0 22.0 0.00 0.00 1.48 74 1002.4
20260507182356 58 248 8.0 18.0 0.00 0.00 1.48 74 1002.6
20260507181843 59 315 6.0 25.0 0.00 0.00 1.48 74 1002.8
20260507181333 58 293 17.0 25.0 0.00 0.00 1.48 73 1003.1
20260507180825 58 293 8.0 17.0 0.00 0.00 1.48 74 1003.3
20260507175806 59 293 6.0 16.0 0.00 0.00 1.48 76 1003.3
20260507175255 58 315 10.0 16.0 0.00 0.00 1.48 75 1003.3
20260507174235 58 293 8.0 13.0 0.00 0.00 1.48 76 1003.4
20260507173725 58 293 3.0 15.0 0.00 0.00 1.48 76 1003.4
20260507172704 58 293 8.0 17.0 0.00 0.00 1.48 76 1002.5
20260507172154 58 338 12.0 17.0 0.00 0.00 1.48 76 1002.0
20260507171645 58 248 10.0 15.0 0.00 0.00 1.48 76 1002.1
20260507170624 58 315 7.0 17.0 0.00 0.00 1.48 76 1002.2
20260507170114 58 270 6.0 17.0 0.00 0.00 1.48 76 1002.2
20260507165605 58 248 8.0 11.0 0.00 0.00 1.48 77 1001.9
20260507165054 59 248 2.0 11.0 0.00 0.00 1.48 77 1002.0
20260507164544 58 293 4.0 11.0 0.00 0.00 1.48 77 1002.2
20260507164033 58 248 6.0 13.0 0.00 0.00 1.48 77 1002.3
20260507163524 58 248 6.0 13.0 0.00 0.00 1.48 77 1002.7
20260507163013 58 338 6.0 16.0 0.00 0.00 1.48 77 1002.7
20260507162504 58 248 6.0 16.0 0.00 0.00 1.48 77 1003.0
20260507161443 58 293 8.0 21.0 0.00 0.00 1.48 77 1003.1
20260507160933 58 248 11.0 21.0 0.00 0.00 1.48 77 1003.2
20260507155913 59 270 6.0 20.0 0.00 0.00 1.48 77 1002.6
20260507155403 59 203 4.0 16.0 0.00 0.00 1.48 78 1002.5
20260507154853 58 270 10.0 16.0 0.00 0.00 1.48 78 1002.5
20260507153832 58 225 8.0 15.0 0.00 0.00 1.48 79 1002.3
20260507153323 58 203 8.0 15.0 0.00 0.00 1.48 79 1002.3
20260507152813 58 248 4.0 14.0 0.00 0.00 1.48 79 1002.7
20260507151752 58 270 6.0 16.0 0.00 0.00 1.48 79 1002.2
20260507151242 58 270 3.0 16.0 0.00 0.00 1.48 80 1002.3
20260507150732 58 248 5.0 20.0 0.00 0.00 1.48 79 1002.5
20260507150222 58 270 7.0 20.0 0.00 0.00 1.48 79 1002.2